GFSSGP_con_mlcape_117.txt.gz
CAPE
0 0 0 0 0 0 0 0 0 0 0 0 0 0 0 0 0 0 0 299 357 459 966 1008 885 1113 971 953 998 1162 1776 1810 1765 1726 1625 1550 1454 1489 1517 1397 1290 1296 1380 1408 1395 1333 1249 1019 775
0 0 0 0 0 0 0 0 0 0 0 0 0 0 0 0 0 0 10 503 549 522 845 1058 959 1145 1125 1115 978 1223 1637 1917 1907 1784 1667 1601 1559 1585 1577 1425 1367 1310 1293 1412 1432 1282 1236 955 724
0 0 0 0 0 0 0 0 0 0 0 0 0 0 0 0 0 0 0 280 816 654 677 1029 1082 1253 1265 1202 1198 1279 1715 1932 1873 1741 1714 1619 1552 1547 1449 1430 1388 1199 1255 1240 1309 1249 1141 933 728
0 0 0 0 0 0 0 0 0 0 0 0 0 0 0 0 0 0 0 190 819 873 973 985 1141 1304 1310 1230 1373 1400 1525 1716 1718 1649 1767 1744 1443 980 824 680 1088 1089 1103 1290 1261 1035 914 785 571
0 0 0 0 0 0 0 0 0 0 0 0 0 0 0 0 0 20 41 315 507 973 1029 1128 1179 1274 1389 1318 1418 1571 1414 1547 1668 1915 1569 1494 759 564 569 545 1042 1057 944 954 1010 769 687 611 394
0 0 0 0 0 0 0 0 0 0 0 0 0 0 0 0 0 8 182 464 842 932 1121 1329 1265 1438 1361 1510 1394 1588 1566 1503 1634 1742 1489 1177 755 741 320 704 786 740 770 764 785 752 664 460 220
0 0 0 0 0 0 0 0 0 0 0 0 0 0 0 0 0 96 600 834 1079 1323 1110 1272 1516 1593 1480 1401 1552 1462 1545 1611 1564 1676 1044 817 853 426 198 411 156 472 643 557 621 719 586 328 114
0 0 0 0 0 0 0 0 0 0 0 0 0 0 0 0 0 5 421 1003 1132 1308 1383 1179 1333 1612 1780 1593 1593 1538 1454 1432 1579 1289 780 863 633 435 483 367 345 414 287 408 594 592 446 180 11
0 0 0 0 0 0 0 0 0 0 0 0 0 0 0 0 0 0 138 639 1062 1141 1343 1350 1172 1394 1632 1702 1576 1554 1467 1252 1272 1148 815 504 443 395 200 108 122 168 210 446 424 379 237 50 0
0 0 0 0 0 0 0 0 0 0 0 0 0 0 0 0 0 0 0 82 543 909 1052 1294 1231 1265 1468 1597 1450 1617 1522 1563 1438 1329 767 603 401 281 161 127 176 235 330 266 222 170 95 13 0
0 0 0 0 0 0 0 0 0 0 0 0 0 0 0 0 0 0 0 14 85 583 1063 1150 1218 1324 1322 1411 1362 1480 1591 1488 1344 1234 1033 530 103 45 192 236 308 441 278 185 96 71 103 73 23
0 0 0 0 0 0 0 0 0 0 0 0 0 0 0 0 0 0 0 0 174 338 633 1015 1159 1262 1311 1304 1311 1242 1345 1372 1119 831 675 355 106 50 126 262 409 385 285 154 61 53 36 52 16
0 0 0 0 0 0 0 0 0 0 0 0 0 0 0 0 0 0 0 0 7 94 371 622 942 1148 1192 1153 1048 932 857 862 1003 622 220 235 143 95 43 80 185 219 193 139 36 18 0 0 0
0 0 0 0 0 0 0 0 0 0 0 0 0 0 0 0 0 0 0 0 0 0 20 399 700 1029 1055 1078 900 724 487 409 602 569 216 130 75 45 47 50 109 154 105 95 12 11 0 0 0
0 0 0 0 0 0 0 0 0 0 0 0 0 0 0 0 0 0 0 0 0 0 0 0 260 821 913 845 611 304 189 181 364 460 228 89 16 0 18 17 26 75 42 5 2 8 0 0 0
0 0 0 0 0 0 0 0 0 0 0 0 0 0 0 0 0 0 0 0 0 0 0 0 35 467 742 692 404 32 4 0 2 27 52 127 57 16 19 30 36 4 6 0 0 0 0 0 0
0 0 0 0 0 0 0 0 0 0 0 0 0 0 0 0 0 0 0 0 0 0 0 0 18 250 528 577 298 18 3 1 1 3 10 68 53 22 37 40 13 1 1 0 0 0 0 0 0
0 0 0 0 0 0 0 0 0 0 0 0 0 0 0 0 0 0 0 0 0 0 0 0 43 264 407 357 166 35 4 1 2 3 3 4 12 48 57 55 2 2 1 0 0 0 0 0 0
0 0 0 0 0 0 0 0 0 0 0 0 0 0 0 0 0 0 0 0 0 0 0 0 92 269 305 244 228 128 2 0 1 4 3 5 1 39 64 6 2 1 1 0 0 0 0 0 0
0 0 0 0 0 0 0 0 0 0 0 0 0 0 0 0 0 0 0 0 0 0 0 36 199 226 355 363 255 75 1 2 0 2 4 1 2 4 16 24 1 1 0 0 0 0 0 0 0
0 0 0 0 0 0 0 0 0 0 0 0 0 0 0 0 0 0 0 0 0 0 0 53 234 215 400 378 169 39 0 2 12 2 2 0 1 3 1 1 1 2 0 0 0 0 0 0 0
0 0 0 0 0 0 0 0 0 0 0 0 0 0 0 0 0 0 0 0 0 0 0 111 235 244 301 235 129 26 0 2 32 9 0 3 1 1 2 1 2 0 0 0 0 0 0 0 0
0 0 0 0 0 0 0 0 0 0 0 0 0 0 0 0 0 0 0 0 0 0 0 72 189 201 98 98 95 38 0 1 48 10 0 10 9 2 2 2 2 0 0 0 0 0 0 0 0
0 0 0 0 0 0 0 0 0 0 0 0 0 0 0 0 0 0 0 0 0 0 0 25 168 105 15 57 64 10 0 4 19 8 10 2 6 2 2 1 2 0 0 0 0 0 0 0 0
0 0 0 0 0 0 0 0 0 0 0 0 0 0 0 0 0 0 0 0 0 0 1 1 41 31 6 24 13 0 10 39 30 15 23 5 3 4 2 2 2 0 0 0 0 0 0 0 0
0 0 0 0 0 0 0 0 0 0 0 0 0 0 0 0 0 0 0 0 0 0 0 0 2 3 5 4 2 4 14 21 47 28 33 5 7 4 3 2 2 1 0 0 0 0 0 0 0
0 0 0 0 0 0 0 0 0 0 0 0 0 0 0 0 0 0 0 0 0 0 0 0 1 3 3 2 3 3 0 1 0 0 3 25 23 31 24 2 1 2 0 0 0 0 0 0 0
0 0 0 0 0 0 0 0 0 0 0 0 0 0 0 0 0 0 0 0 0 0 0 0 0 4 1 5 2 2 3 0 0 0 0 0 3 3 23 20 8 5 0 0 0 0 0 0 0
0 0 5 2 3 0 0 0 0 0 0 0 0 0 0 0 0 0 0 0 0 0 2 1 0 5 2 4 3 2 4 1 0 0 1 9 4 8 4 4 7 3 7 1 1 0 0 0 0
0 0 0 1 0 0 0 0 0 0 0 0 0 0 0 0 0 0 0 0 0 0 4 1 1 2 2 2 2 0 3 0 0 1 4 6 3 5 3 4 1 3 2 2 2 2 0 0 0

GFSSGP_con_mlcape_120.txt.gz
CAPE
0 0 0 0 0 0 0 0 0 0 0 0 0 0 0 0 0 0 13 633 971 510 1118 995 901 883 1053 1091 1067 1241 1708 1807 1704 1629 1527 1463 1642 1645 1641 1594 1430 1332 1276 1449 1351 1280 1299 1040 971
0 0 0 0 0 0 0 0 0 0 0 0 0 0 0 0 0 0 83 1044 900 823 1105 1303 846 963 1151 1228 1108 1402 1880 1979 1778 1799 1718 1662 1666 1592 1526 1538 1383 1222 1148 1299 1372 1394 1251 1116 887
0 0 0 0 0 0 0 0 0 0 0 0 0 0 0 0 0 0 1 1099 988 896 1036 1385 867 933 1118 1251 1110 1406 2031 2079 1865 1967 1821 1679 1684 1655 1507 1256 1193 1142 1148 1336 1412 1333 1254 1001 844
0 0 0 0 0 0 0 0 0 0 0 0 0 0 0 0 0 0 19 927 963 928 955 1375 945 1057 1257 1349 1126 1323 1912 2130 2098 2031 1812 1749 1518 1427 780 608 574 824 1009 1057 1112 1051 1151 926 765
0 0 0 0 0 0 0 0 0 0 0 0 0 0 0 0 0 156 73 575 824 1137 1230 1690 1127 1196 1399 1456 1350 1282 1780 2039 2179 2000 1855 1767 1315 669 52 332 184 193 453 1091 1074 1094 905 797 631
0 0 0 0 0 0 0 0 0 0 0 0 0 0 0 0 0 150 414 586 1231 1618 1808 1879 1226 1308 1419 1589 1565 1387 1517 1733 2014 2014 1836 1620 1097 498 236 436 134 223 485 1028 885 872 743 657 510
0 0 0 0 0 0 0 0 0 0 0 0 0 0 0 0 0 177 785 1146 1660 2080 2067 1994 1444 1562 1404 1637 1663 1614 1429 1555 1756 1875 1741 1316 784 612 491 378 722 551 735 764 726 684 634 555 384
0 0 0 0 0 0 0 0 0 0 0 0 0 0 0 0 0 218 1154 1439 1767 2208 2207 2044 1894 1833 1923 1733 1655 1709 1585 1425 1573 1820 1668 1189 756 575 612 657 645 605 602 580 593 601 535 427 213
0 0 0 0 0 0 0 0 0 0 0 0 0 0 0 0 0 0 392 1339 1597 1900 2227 2238 2195 1972 2077 1962 1853 1664 1660 1526 1568 1780 1468 1065 1083 924 521 524 277 422 492 467 508 470 416 282 78
0 0 0 0 0 0 0 0 0 0 0 0 0 0 0 0 0 0 0 126 1273 1624 1946 2317 2230 2019 2002 2003 1859 1944 1959 1871 1913 1957 1633 1030 925 1037 680 546 275 452 503 488 453 355 286 206 207
0 0 0 0 0 0 0 0 0 0 0 0 0 0 0 0 0 0 0 0 160 1147 1743 2011 2141 2078 2047 1918 1905 1815 1834 1904 1768 1774 1867 1384 1099 908 659 370 404 297 366 263 270 254 322 327 83
0 0 0 0 0 0 0 0 0 0 0 0 0 0 0 0 0 0 0 0 0 555 1283 1966 2048 1766 1912 1806 1821 1829 2139 1782 2084 1895 1765 1233 922 761 441 323 171 325 415 328 398 306 250 68 12
0 0 0 0 0 0 0 0 0 0 0 0 0 0 0 0 0 0 0 0 0 182 739 1288 1939 1789 1726 1721 1677 1695 1875 1993 2030 1827 1732 1126 824 670 484 377 267 338 385 339 224 154 97 86 113
0 0 0 0 0 0 0 0 0 0 0 0 0 0 0 0 0 0 0 0 0 0 60 707 1323 1791 1768 1493 1490 1530 1549 1793 1729 1587 1584 1426 835 531 209 181 457 241 358 254 130 121 115 134 136
0 0 0 0 0 0 0 0 0 0 0 0 0 0 0 0 0 0 0 0 0 0 0 3 346 1304 1784 1710 1392 1277 1287 1308 1581 1455 1386 1381 817 612 102 117 198 152 147 134 97 86 76 104 118
0 0 0 0 0 0 0 0 0 0 0 0 0 0 0 0 0 0 0 0 0 0 0 0 0 315 1321 1606 1817 1421 1094 925 1095 1335 985 1020 784 554 335 208 122 161 88 55 42 58 79 118 149
0 0 0 0 0 0 0 0 0 0 0 0 0 0 0 0 0 0 0 0 0 0 0 0 0 38 647 1290 1566 1650 1318 955 863 1220 1128 656 502 416 243 133 78 82 48 1 2 45 79 117 121
0 0 0 0 0 0 0 0 0 0 0 0 0 0 0 0 0 0 0 0 0 0 0 0 0 0 408 990 1484 1281 721 411 363 449 513 578 327 192 214 110 30 23 13 1 0 25 69 111 118
0 0 0 0 0 0 0 0 0 0 0 0 0 0 0 0 0 0 0 0 0 0 0 0 0 44 516 913 1182 773 420 184 110 104 99 36 155 141 98 71 30 2 2 1 0 4 58 64 53
0 0 0 0 0 0 0 0 0 0 0 0 0 0 0 0 0 0 0 0 0 1 5 35 168 351 562 717 696 580 433 341 129 14 16 3 34 73 46 68 47 2 2 2 0 15 42 40 49
0 0 0 0 0 0 0 0 0 0 0 0 0 0 0 0 0 0 0 0 0 0 74 100 203 462 439 590 519 730 490 315 34 16 3 2 82 142 92 48 41 2 2 2 0 2 13 26 23
0 0 0 0 0 0 0 0 0 0 0 0 0 0 0 0 0 0 0 0 0 8 166 170 326 400 259 571 509 821 612 624 296 119 88 97 145 43 5 2 10 4 2 1 0 0 1 22 10
0 0 0 0 0 0 0 0 0 0 0 0 0 0 0 0 0 0 0 0 0 0 134 280 362 217 193 442 857 922 885 583 317 107 140 133 9 1 6 5 1 2 1 1 0 3 30 18 0
0 0 0 0 0 0 0 0 0 0 0 0 0 0 0 0 0 0 0 0 0 0 2 34 152 148 167 369 796 902 871 470 319 296 204 79 2 2 2 1 2 1 2 2 1 0 1 5 13
0 0 2 2 0 0 0 0 0 0 0 0 0 0 0 0 0 0 0 0 0 0 0 0 1 20 3 75 521 652 570 359 199 362 175 68 4 2 1 2 2 2 2 1 1 0 14 6 26
0 9 0 0 0 0 0 0 0 0 0 0 0 0 0 0 0 0 0 0 0 0 20 0 1 2 4 8 146 344 305 157 142 232 213 47 20 2 3 3 2 2 2 1 0 0 13 22 35
0 4 0 6 0 0 0 19 30 0 0 0 0 0 0 0 0 0 0 0 0 0 0 58 1 30 5 2 45 111 126 316 250 291 237 220 26 1 5 3 3 3 2 0 0 0 3 3 19
2 0 0 0 0 0 0 0 2 0 0 0 0 0 0 0 0 0 0 0 0 0 0 0 122 6 5 2 16 204 208 246 180 164 225 149 50 29 13 2 3 3 3 2 0 0 0 0 0
2 28 3 2 0 0 0 0 23 0 0 0 0 0 0 0 0 0 0 0 0 0 0 0 0 4 4 4 3 150 103 72 78 10 19 21 6 1 13 5 3 2 2 2 2 2 0 0 0
0 1 0 7 0 5 6 1 0 1 0 0 0 0 0 0 0 0 0 0 0 0 0 0 0 4 3 1 2 125 81 61 56 19 8 4 1 15 14 2 1 2 0 1 1 1 1 0 1

GFSSGP_con_mlcape_123.txt.gz
CAPE
0 0 0 0 0 0 0 0 0 0 0 0 0 0 0 0 0 0 0 162 90 253 955 831 737 748 934 1019 1085 1221 1539 1591 1409 1429 1475 1325 1419 1624 1599 1566 1345 1257 1260 1436 1377 1335 1310 1254 940
0 0 0 0 0 0 0 0 0 0 0 0 0 0 0 0 0 0 0 619 179 260 944 1288 771 788 994 1078 1166 1327 1596 1744 1663 1568 1535 1529 1593 1609 1578 1530 1228 1036 985 1387 1371 1195 985 1210 945
0 0 0 0 0 0 0 0 0 0 0 0 0 0 0 0 0 0 0 470 215 235 622 1431 802 848 1056 1160 1184 1470 1704 1937 1873 1728 1627 1493 1449 1547 1521 1128 857 768 802 1226 1371 1169 1207 942 863
0 0 0 0 0 0 0 0 0 0 0 0 0 0 0 0 0 0 0 245 174 207 415 1337 973 896 1149 1253 1317 1597 1937 2005 1893 1914 1826 1750 1651 1537 1266 427 146 242 69 539 655 700 874 849 753
0 0 0 0 0 0 0 0 0 0 0 0 0 0 0 0 0 0 0 177 142 305 734 1640 908 953 1181 1436 1358 1579 2063 2153 1991 2075 1996 1784 1536 1435 894 0 0 12 0 209 445 832 815 733 633
0 0 0 0 0 0 0 0 0 0 0 0 0 0 0 0 0 0 1 142 452 744 1114 2229 1033 1030 1331 1562 1465 1454 1778 2044 2124 2144 2069 1738 1650 1160 242 0 108 80 129 123 357 788 801 682 535
0 0 0 0 0 0 0 0 0 0 0 0 0 0 0 0 0 57 207 252 935 1459 1867 2147 1742 1402 1365 1602 1603 1430 1668 1937 2051 2139 1975 1799 1362 793 182 108 171 76 306 182 595 717 652 567 446
0 0 0 0 0 0 0 0 0 0 0 0 0 0 0 0 0 26 575 663 1336 1978 2437 2237 2133 1922 1877 1842 1641 1474 1324 1616 1871 2097 1932 1721 1273 650 195 520 209 377 687 758 646 532 417 391 330
0 0 0 0 0 0 0 0 0 0 0 0 0 0 0 0 0 0 398 1012 1498 1970 2441 2354 2444 2217 2251 2138 1945 1677 1468 1381 1630 1974 1798 1551 1477 930 710 613 583 734 775 662 572 445 354 264 222
0 0 0 0 0 0 0 0 0 0 0 0 0 0 0 0 0 0 0 36 1080 1577 2131 2429 2541 2385 2384 1976 2123 1964 2039 1716 1748 1948 2078 2011 1520 1328 955 681 646 791 661 591 416 213 151 210 204
0 0 0 0 0 0 0 0 0 0 0 0 0 0 0 0 0 0 0 0 1 627 1579 2111 2541 2671 2351 2193 2099 1990 1987 1864 1789 1823 1983 2027 1524 1365 1125 768 565 569 498 595 238 158 223 324 304
0 0 0 0 0 0 0 0 0 0 0 0 0 0 0 0 0 0 0 0 0 0 858 1858 2291 2680 2422 2158 2103 2154 2088 1945 1946 1848 2092 1980 1515 1154 1157 813 628 403 466 505 343 208 164 308 253
0 0 0 0 0 0 0 0 0 0 0 0 0 0 0 0 0 0 0 0 0 0 142 1280 2236 2535 2379 2372 2148 2154 2154 2037 1889 1967 2142 2191 1690 1258 1082 829 533 441 376 406 249 221 188 222 25
0 0 0 0 0 0 0 0 0 0 0 0 0 0 0 0 0 0 0 0 0 0 26 669 1464 2234 2302 2268 2057 2219 2265 2117 2026 2080 2133 2306 1767 1451 1046 859 589 352 412 391 174 219 141 97 61
0 0 0 0 0 0 0 0 0 0 0 0 0 0 0 0 0 0 0 0 0 0 0 1 557 1250 2163 2139 1838 1986 2186 2096 2158 2180 2252 2177 1898 1475 1090 795 698 411 371 133 67 180 79 87 53
0 0 0 0 0 0 0 0 0 0 0 0 0 0 0 0 0 0 0 0 0 0 0 0 0 99 1231 2005 1975 1678 1885 2056 2118 2105 1992 2007 1951 1540 1099 892 780 361 151 56 65 54 58 63 97
0 0 0 0 0 0 0 0 0 0 0 0 0 0 0 0 0 0 0 0 0 0 0 0 0 0 182 1162 1851 1906 1430 1521 1799 1999 1854 1400 1677 1449 1103 707 383 352 152 70 63 49 38 53 49
0 0 0 0 0 0 0 0 0 0 0 0 0 0 0 0 0 0 0 0 0 0 0 0 0 0 0 417 1387 1814 2021 1415 1258 1540 1715 1625 1478 1391 1101 655 345 333 95 14 26 30 28 104 83
0 0 0 0 0 0 0 0 0 0 0 0 0 0 0 0 0 0 0 0 0 0 0 0 0 0 0 19 705 1417 1932 1575 1053 1105 1578 1603 1158 1115 743 489 236 157 28 2 6 12 13 91 123
0 0 0 0 0 0 0 0 0 0 0 0 0 0 0 0 0 0 0 0 0 0 0 83 67 79 110 92 603 1181 1570 601 562 625 1123 1123 943 651 433 474 119 92 4 2 1 2 2 35 120
0 0 0 0 0 0 0 0 0 0 0 0 0 0 0 0 0 0 0 0 0 0 86 221 154 248 447 459 883 931 588 377 312 395 542 787 472 460 329 178 95 26 16 2 2 2 2 32 48
0 0 0 0 0 0 0 0 0 0 0 0 0 0 0 0 0 0 0 0 0 0 60 391 426 432 619 752 928 749 554 571 381 360 299 543 359 260 259 333 85 2 4 2 2 1 0 33 34
0 0 0 0 0 0 0 0 0 0 0 0 0 0 0 0 0 0 0 0 0 0 0 94 537 597 664 576 868 574 687 755 795 835 481 319 345 321 420 315 96 2 2 2 2 2 1 30 37
0 0 0 0 0 0 0 0 0 0 0 0 0 0 2 0 0 0 0 0 0 0 10 21 100 248 218 297 562 571 673 1113 1109 863 597 492 471 386 295 200 33 7 2 3 2 2 0 4 28
0 0 0 0 0 0 0 0 0 0 0 0 7 33 0 0 0 0 0 0 0 0 2 55 21 87 117 221 433 672 919 1026 1033 670 423 596 155 40 33 16 2 3 2 2 2 1 2 9 25
14 1 0 1 4 0 0 0 0 0 31 66 96 26 5 2 0 0 0 0 0 0 0 3 34 60 42 161 185 400 856 932 905 761 574 516 159 9 3 1 2 3 1 1 2 2 2 8 10
6 1 0 0 0 0 0 0 46 62 23 22 32 17 18 0 0 0 0 0 0 0 0 0 25 67 49 12 76 129 473 812 858 539 375 384 343 56 2 3 3 1 1 1 1 2 4 11 18
16 4 3 0 0 1 1 0 39 5 1 6 0 0 0 0 0 0 0 0 0 0 0 0 0 20 74 39 17 14 120 540 545 509 580 524 394 95 1 2 3 2 2 1 0 1 2 8 19
1 2 5 7 3 5 5 0 0 38 0 0 0 0 0 0 0 0 0 0 0 0 0 0 0 1 15 20 25 10 28 328 568 457 517 473 400 181 65 2 3 2 2 2 1 0 1 1 17
25 13 0 30 3 2 2 5 1 11 0 0 0 0 0 0 0 0 0 0 1 1 0 0 0 0 0 6 3 11 4 298 284 198 204 351 224 173 42 1 3 3 3 2 1 1 1 0 4

GFSSGP_con_mlcape_126.txt.gz
CAPE
0 0 0 0 0 0 0 0 0 0 0 0 0 0 0 0 0 0 0 68 472 536 97 445 534 727 882 951 1060 1379 1393 1340 1243 1248 1303 1234 1371 1485 1536 1420 1329 1212 1295 1248 1220 1200 1031 576 571
0 0 0 0 0 0 0 0 0 0 0 0 0 0 0 0 0 0 61 4 300 859 367 612 503 689 879 1005 1096 1256 1512 1557 1405 1407 1456 1424 1443 1527 1558 1386 1145 896 573 830 1306 1399 799 687 687
0 0 0 0 0 0 0 0 0 0 0 0 0 0 0 0 0 0 76 0 109 694 962 688 339 570 862 998 1131 1352 1558 1670 1555 1535 1585 1580 1541 1394 1585 1130 802 278 123 11 434 898 659 638 694
0 0 0 0 0 0 0 0 0 0 0 0 0 0 0 0 0 0 24 0 38 229 1190 1005 260 467 801 994 1189 1475 1795 1851 1756 1657 1672 1661 1591 1466 1429 819 549 79 16 0 113 306 493 700 648
0 0 0 0 0 0 0 0 0 0 0 0 0 0 0 0 0 0 9 0 41 454 1079 1011 386 443 892 974 1158 1558 1883 1815 1860 1748 1744 1701 1540 1611 1041 590 193 13 0 0 2 216 297 711 555
0 0 0 0 0 0 0 0 0 0 0 0 0 0 0 0 0 0 78 24 168 1113 1502 1081 615 526 921 1052 1134 1518 1873 1721 1895 1747 1889 1728 1683 1469 606 0 0 0 0 2 186 342 528 645 526
0 0 0 0 0 0 0 0 0 0 0 0 0 0 0 0 0 63 26 205 639 1628 2088 1513 838 800 935 1144 1158 1299 1789 1651 1812 1935 1910 1786 1618 1257 702 0 0 0 0 292 428 383 471 525 486
0 0 0 0 0 0 0 0 0 0 0 0 0 0 0 0 0 103 113 282 993 1718 2272 2155 1247 1099 1162 1257 1238 1187 1461 1535 1657 1864 1998 1783 1446 1042 459 4 282 68 168 284 451 532 455 292 282
0 0 0 0 0 0 0 0 0 0 0 0 0 0 0 0 0 17 364 545 1131 2211 2411 2476 2087 1609 1602 1659 1392 1213 1199 1388 1654 1815 1954 1733 1507 967 642 299 299 72 326 444 453 330 234 146 139
0 0 0 0 0 0 0 0 0 0 0 0 0 0 0 0 0 0 88 715 1257 1944 2681 2726 2445 2196 2210 2081 1899 1452 1404 1354 1589 1825 1850 1902 1780 1382 874 715 370 387 629 799 557 283 117 74 124
0 0 0 0 0 0 0 0 0 0 0 0 0 0 0 0 0 0 0 8 843 1649 2297 2676 2841 2494 2445 1985 2290 1747 1844 1670 1790 1957 2181 1861 1895 1695 1131 1049 685 788 743 736 447 237 99 306 256
0 0 0 0 0 0 0 0 0 0 0 0 0 0 0 0 0 0 0 0 0 825 1758 2368 2781 2780 2357 2439 2049 1975 2080 1930 1943 1843 2094 2079 1857 1664 1380 951 881 777 659 490 395 154 179 255 243
0 0 0 0 0 0 0 0 0 0 0 0 0 0 0 0 0 0 0 0 0 0 1014 2044 2680 2870 2675 2544 2054 1814 2059 2099 2099 2062 2041 2307 1985 1698 1373 1144 830 627 604 344 436 193 145 196 207
0 0 0 0 0 0 0 0 0 0 0 0 0 0 0 0 0 0 0 0 0 0 0 1965 2197 2905 2792 2431 2306 1852 1987 2214 2179 2215 2146 2219 2085 1727 1484 1384 1013 564 473 474 438 187 109 121 70
0 0 0 0 0 0 0 0 0 0 0 0 0 0 0 0 0 0 0 0 0 0 0 298 1888 2547 2672 2648 2629 2055 1898 2485 2129 2070 2390 2214 2302 1985 1545 1322 1062 680 419 423 297 53 30 62 57
0 0 0 0 0 0 0 0 0 0 0 0 0 0 0 0 0 0 0 0 0 0 0 20 821 1326 2484 2501 2389 1978 1699 2103 2484 2181 2221 2354 2362 2003 1662 1390 1168 731 356 221 115 34 36 37 35
0 0 0 0 0 0 0 0 0 0 0 0 0 0 0 0 0 0 0 0 0 0 0 0 0 566 1203 2484 2262 1893 1612 1764 2016 2452 2333 2314 2428 2026 1741 1391 1123 825 337 124 34 8 19 20 39
0 0 0 0 0 0 0 0 0 0 0 0 0 0 0 0 0 0 0 0 0 0 0 0 0 0 91 1343 2283 2169 1881 1634 1664 1765 2333 2059 1927 2174 1820 1403 1168 764 333 103 15 0 27 36 53
0 0 0 0 0 0 0 0 0 0 0 0 0 0 0 0 0 0 0 0 0 0 0 0 0 0 0 1 735 1597 2023 1826 1606 1373 1469 2073 1544 1651 1693 1346 977 638 305 96 23 0 8 13 41
0 0 0 0 0 0 0 0 0 0 0 0 0 0 0 0 0 0 0 0 0 0 0 0 3 10 20 4 0 528 1367 2267 1749 1376 1200 1496 1790 1533 1467 1137 780 640 276 69 13 1 1 1 7
0 0 0 0 0 0 0 0 0 0 0 0 0 0 0 0 0 0 0 0 0 0 1 85 216 208 122 102 50 348 1220 1254 1099 979 1049 982 1530 1376 1304 1056 638 471 211 63 12 0 0 0 1
0 0 0 0 0 0 0 0 0 0 0 0 0 0 0 0 0 8 0 0 0 0 0 59 345 572 414 427 322 763 885 924 649 590 596 748 971 959 843 676 448 181 72 19 5 2 0 0 1
0 0 0 0 0 0 0 0 0 0 0 0 0 0 0 7 14 5 0 0 0 0 0 0 30 363 635 860 664 1128 899 766 540 403 370 453 624 602 599 501 334 141 79 15 2 3 2 0 0
2 0 0 0 0 0 0 0 0 0 0 0 0 0 18 89 22 0 2 0 2 4 8 63 53 38 122 278 354 869 970 561 440 341 371 339 428 560 437 231 455 115 52 30 2 4 3 1 0
18 4 3 21 3 0 0 0 0 0 0 0 0 4 97 32 9 9 11 11 7 2 0 0 10 37 147 62 104 271 734 550 506 901 832 657 494 525 420 397 429 128 28 9 2 5 8 1 0
15 2 5 8 0 0 4 0 0 0 0 0 0 136 60 33 24 18 7 4 3 0 0 0 0 26 166 54 54 113 481 688 609 868 725 624 603 364 195 248 144 51 18 1 4 2 2 3 1
26 30 50 38 7 12 0 0 0 0 0 33 113 75 66 64 25 9 6 1 1 0 0 0 0 0 16 61 23 78 160 471 824 824 699 569 645 243 72 0 1 0 1 3 1 2 3 1 2
31 12 9 12 3 4 0 0 4 2 20 59 30 18 27 15 0 0 0 1 1 0 0 0 0 0 0 4 21 22 65 210 588 749 661 408 526 294 55 0 1 0 0 1 1 2 5 1 1
33 1 18 28 91 5 0 4 31 10 0 24 0 0 0 0 0 0 0 1 2 2 0 0 0 0 0 0 0 19 12 3 156 509 575 602 528 344 86 0 0 2 1 1 1 1 2 3 2
6 3 25 0 1 2 17 0 0 1 0 0 0 0 0 0 0 0 0 0 0 0 0 0 0 0 0 0 0 3 31 7 42 306 516 586 547 390 98 0 0 1 2 2 1 1 1 0 6

GFSSGP_con_mlcape_129.txt.gz
CAPE
0 0 0 0 0 0 0 0 0 0 0 0 0 0 0 0 0 0 246 12 0 0 326 331 314 561 754 923 1133 1206 1246 1272 1164 1125 1073 1267 1357 1392 1429 1488 1389 985 913 778 686 641 671 737 679
0 0 0 0 0 0 0 0 0 0 0 0 0 0 0 0 0 69 293 196 0 0 102 123 249 468 644 769 1013 1215 1317 1359 1258 1333 1300 1385 1479 1468 1495 1356 852 495 530 685 548 459 462 500 599
0 0 0 0 0 0 0 0 0 0 0 0 0 0 0 0 0 0 283 405 48 0 86 49 216 468 607 709 880 1178 1363 1396 1362 1451 1424 1455 1544 1627 1487 1200 644 317 372 553 426 313 396 546 679
0 0 0 0 0 0 0 0 0 0 0 0 0 0 0 0 0 0 304 308 97 104 111 52 210 506 622 752 875 1111 1361 1467 1464 1525 1537 1492 1584 1600 1446 936 611 284 207 553 327 324 334 459 622
0 0 0 0 0 0 0 0 0 0 0 0 0 0 0 0 0 0 29 222 213 449 605 159 202 519 684 816 953 1142 1349 1515 1571 1570 1651 1612 1684 1573 1220 845 472 35 0 172 303 258 254 398 586
0 0 0 0 0 0 0 0 0 0 0 0 0 0 0 0 0 0 0 110 517 594 762 507 290 512 752 878 1049 1182 1419 1320 1664 1645 1686 1628 1707 1431 1118 734 104 0 18 9 157 260 319 245 516
0 0 0 0 0 0 0 0 0 0 0 0 0 0 0 0 0 0 0 543 594 741 659 585 285 646 771 858 1143 1358 1523 1466 1714 1465 1692 1691 1571 1224 803 92 24 0 0 0 0 182 260 349 541
0 0 0 0 0 0 0 0 0 0 0 0 0 0 0 0 0 0 31 797 758 907 730 576 246 521 751 827 1007 1356 1404 1446 1732 1576 1731 1711 1442 926 482 67 5 0 8 308 347 516 583 656 462
0 0 0 0 0 0 0 0 0 0 0 0 0 0 0 0 0 9 316 1176 1284 1426 1284 968 316 293 644 856 930 1188 1425 1209 1590 1473 1653 1653 1297 883 600 236 38 59 216 491 551 357 323 207 180
0 0 0 0 0 0 0 0 0 0 0 0 0 0 0 0 0 0 220 1182 1501 1608 1718 1601 1077 401 654 955 958 964 1244 1095 1168 1424 1687 1585 1373 967 533 225 228 157 263 379 255 369 230 161 137
0 0 0 0 0 0 0 0 0 0 0 0 0 0 0 0 0 0 0 307 1156 1664 1969 2014 1885 1306 941 1155 942 899 1046 1161 1077 1331 1501 1574 1626 1166 861 544 524 257 526 455 502 304 140 150 109
0 0 0 0 0 0 0 0 0 0 0 0 0 0 0 0 0 0 0 141 747 1603 1859 2174 2176 1976 1630 1455 1518 1024 985 978 1052 1291 1578 1597 1709 1449 947 749 603 434 587 529 409 165 120 119 108
0 0 0 0 0 0 0 0 0 0 0 0 0 0 0 0 0 0 0 0 1 950 1751 2231 2312 2165 2071 1725 1873 1679 1272 1224 1193 1285 1760 1614 1657 1573 1281 918 828 727 613 617 334 149 105 148 144
0 0 0 0 0 0 0 0 0 0 0 0 0 0 0 0 0 0 0 0 0 0 1184 2149 2492 2407 2145 2081 1827 1831 1617 1740 1579 1488 1587 1950 1576 1561 1380 1021 873 732 647 591 264 136 103 159 128
0 0 0 0 0 0 0 0 0 0 0 0 0 0 0 0 0 0 0 0 0 0 1 1614 2400 2543 2431 2265 1941 1758 1501 1790 1866 1787 1668 1787 1984 1578 1366 1106 850 678 539 444 325 161 33 31 46
0 0 0 0 0 0 0 0 0 0 0 0 0 0 0 0 0 0 0 0 0 0 0 982 2326 2496 2558 2281 2142 1857 1645 1408 1962 1943 1889 1830 1938 1849 1389 1174 977 686 528 410 269 66 3 2 10
0 0 0 0 0 0 0 0 0 0 0 0 0 0 0 0 0 0 0 0 0 0 0 103 1920 2396 2329 2325 2188 2029 1777 1786 1580 2046 1805 2099 1972 1920 1553 1253 1046 714 493 334 162 36 0 0 10
0 0 0 0 0 0 0 0 0 0 0 0 0 0 0 0 0 0 0 0 0 0 0 0 1 796 1828 2013 2094 2027 1785 1705 1371 1635 2164 1781 2140 1897 1675 1288 1098 686 391 242 122 33 0 0 0
0 0 0 0 0 0 0 0 0 0 0 0 0 0 0 0 0 0 0 0 0 0 0 0 0 0 0 1079 1604 1709 1816 1648 1343 1362 1533 2054 2066 2045 1731 1353 1099 759 472 274 89 38 4 1 2
0 0 0 0 0 0 0 0 0 0 0 0 0 0 0 0 0 0 0 0 0 0 0 0 0 2 5 0 201 1498 1658 1743 1654 1433 1255 1577 1667 1789 1733 1545 1168 892 577 277 81 19 9 1 1
0 0 0 0 0 0 0 0 0 0 0 0 0 0 0 0 0 0 8 10 0 3 15 0 0 92 168 90 0 0 1024 1696 1601 1505 1416 1236 1462 1510 1654 1393 1190 898 634 420 141 44 13 1 1
0 0 0 0 0 0 0 0 0 0 0 0 0 0 0 0 0 0 1 23 31 27 10 0 0 15 265 494 103 0 0 273 1119 1279 1231 1175 905 1343 1539 1177 1041 872 556 318 164 44 8 1 1
0 0 0 0 0 0 0 0 0 0 0 0 0 0 0 0 15 28 11 66 41 26 1 64 50 17 32 406 505 485 451 377 465 740 912 730 818 973 1204 1051 798 677 497 268 132 38 11 0 1
0 0 0 0 0 0 0 0 0 0 0 0 0 0 0 0 0 8 9 60 54 33 29 47 23 2 34 37 46 306 826 788 626 547 572 538 527 730 883 805 651 494 355 132 60 34 20 1 0
0 9 0 0 0 0 0 0 0 0 0 0 0 0 0 2 19 28 23 20 17 17 25 18 0 8 116 139 61 34 113 834 684 454 273 161 164 364 531 591 546 377 213 62 30 24 19 1 1
0 0 13 9 0 0 1 1 0 0 0 0 0 88 28 21 19 15 12 13 25 34 37 29 0 0 4 99 91 40 57 175 663 414 311 363 226 224 395 425 411 321 132 55 12 21 14 5 2
0 0 7 5 0 10 0 0 0 2 0 0 0 97 37 3 4 2 0 3 5 24 20 4 12 0 0 0 9 41 26 55 138 606 630 665 600 366 321 355 397 322 173 66 28 11 4 2 5
0 28 0 18 4 4 0 0 0 2 115 3 46 109 28 1 0 0 0 14 13 21 25 11 3 0 0 0 0 0 7 44 71 186 637 625 584 408 273 135 144 129 77 14 0 1 2 1 4
0 4 15 5 31 0 1 0 7 1 0 0 0 0 0 0 0 0 0 0 13 8 2 0 0 0 0 0 0 0 0 1 50 39 219 580 568 393 217 49 19 0 0 1 1 1 2 3 2
11 0 25 5 0 0 0 0 0 0 0 0 0 0 0 0 0 0 0 0 0 0 0 0 0 0 0 0 0 0 0 0 15 19 4 267 513 311 130 14 0 0 0 1 0 0 1 3 3

GFSSGP_con_mlcape_132.txt.gz
CAPE
0 0 0 0 0 0 0 0 0 0 0 0 0 0 0 0 0 0 39 0 0 20 531 727 786 781 831 933 992 1020 1069 1102 960 1025 1036 1213 1277 1320 1416 1395 1262 1141 1025 907 718 749 831 712 638
0 0 0 0 0 0 0 0 0 0 0 0 0 0 0 0 0 173 16 0 8 22 407 517 594 567 733 943 1060 1122 1199 1159 1026 1107 1235 1364 1338 1355 1390 1063 857 831 929 770 738 694 643 671 639
0 0 0 0 0 0 0 0 0 0 0 0 0 0 0 0 65 57 3 0 6 7 156 313 427 447 572 866 1030 1177 1278 1189 1165 1201 1387 1481 1490 1478 1213 803 657 738 839 655 570 653 644 645 601
0 0 0 0 0 0 0 0 0 0 0 0 0 0 0 0 15 49 0 0 0 0 22 214 243 297 463 717 982 1218 1303 1256 1271 1255 1465 1660 1622 1497 1147 650 524 720 842 743 516 554 520 530 545
0 0 0 0 0 0 0 0 0 0 0 0 0 0 0 0 0 108 1 0 0 0 6 163 154 258 469 728 919 1154 1245 1273 1300 1412 1557 1727 1704 1525 1137 726 459 229 790 735 489 420 532 448 546
0 0 0 0 0 0 0 0 0 0 0 0 0 0 0 0 7 217 216 0 0 0 0 37 235 316 494 800 906 1053 1170 1270 1356 1506 1547 1717 1644 1442 1007 588 348 2 276 626 391 316 242 432 509
0 0 0 0 0 0 0 0 0 0 0 0 0 0 0 0 5 61 65 151 111 0 0 5 302 419 574 743 908 1033 1205 1337 1438 1556 1568 1670 1528 1258 943 514 20 0 19 364 337 278 166 228 561
0 0 0 0 0 0 0 0 0 0 0 0 0 0 0 0 0 1 296 413 354 230 100 0 118 473 582 874 931 1129 1095 1424 1544 1609 1630 1576 1407 1207 922 124 0 0 0 198 389 349 276 127 440
0 0 0 0 0 0 0 0 0 0 0 0 0 0 0 0 0 42 409 612 548 598 534 206 52 263 392 725 1128 1259 1218 1472 1607 1370 1667 1478 1203 957 772 0 0 0 13 52 207 219 299 489 486
0 0 0 0 0 0 0 0 0 0 0 0 0 0 6 2 0 56 308 376 545 563 662 472 188 128 396 667 1051 1357 1222 1428 1609 1402 1494 1509 1105 662 422 29 0 1 191 319 346 527 568 119 53
0 0 0 0 0 0 0 0 0 0 0 0 0 0 1 16 33 181 422 417 460 606 797 805 468 144 312 626 757 1062 1199 1124 1406 1274 1459 1542 1127 811 480 127 46 53 303 441 393 385 280 120 63
0 0 0 0 0 0 0 0 0 0 0 0 0 0 0 0 0 45 457 741 738 919 977 1207 962 421 273 620 611 769 1093 1013 1067 1166 1418 1329 1376 932 685 287 110 76 237 204 150 263 206 103 92
0 0 0 0 0 0 0 0 0 0 0 0 0 0 0 0 0 0 2 366 983 1142 1333 1400 1507 1273 701 513 550 642 821 927 822 994 1313 1360 1458 1217 812 458 300 208 253 170 142 156 148 87 88
0 0 0 0 0 0 0 0 0 0 0 0 0 0 0 0 0 0 0 0 359 1328 1514 1733 1714 1774 1550 1035 938 787 805 781 905 996 1280 1445 1528 1392 1009 704 525 356 242 354 234 202 109 104 78
0 0 0 0 0 0 0 0 0 0 0 0 0 0 0 0 0 0 0 0 0 117 1265 1898 1912 1986 2039 1744 1413 1404 1219 1032 913 993 1238 1502 1507 1436 1217 891 733 611 440 364 375 259 118 51 36
0 0 0 0 0 0 0 0 0 0 0 0 0 0 0 0 0 0 0 0 0 0 30 1302 2166 2127 2088 2186 1799 1671 1564 1466 1372 1416 1280 1535 1608 1418 1221 1038 883 715 605 518 462 217 88 19 16
0 0 0 0 0 0 0 0 0 0 0 0 0 0 0 0 0 0 0 0 0 0 0 101 1868 1968 2194 2268 2011 1774 1636 1632 1610 1709 1630 1524 1690 1554 1289 1170 913 673 584 508 425 179 44 11 13
0 0 0 0 0 0 0 0 0 0 0 0 0 0 0 0 0 0 0 0 0 0 0 31 1411 2327 2426 2141 2084 1708 1642 1558 1400 1619 1780 1668 1689 1613 1438 1264 1015 720 600 443 309 189 27 3 6
0 0 0 0 0 0 0 0 0 0 0 0 0 0 0 0 0 0 0 0 0 0 0 164 1631 2316 2070 1553 1636 1388 1494 1471 1532 1398 1657 1758 1844 1757 1480 1202 832 730 754 500 209 100 0 0 0
0 0 0 0 0 0 0 0 0 0 0 0 0 0 0 0 0 0 0 0 0 0 0 0 0 0 786 1279 1505 1452 1481 1411 1624 1520 1168 1618 1792 1638 1364 1118 744 677 605 423 267 146 11 0 1
0 0 0 0 0 0 0 0 0 0 0 0 0 0 0 0 0 0 0 0 9 39 63 64 97 156 158 103 24 727 1494 1400 1410 1421 1394 1115 1447 1616 1373 948 790 579 510 498 308 147 61 19 8
0 0 0 0 0 0 0 0 0 0 0 0 0 0 0 0 0 0 0 115 121 137 93 64 54 52 198 450 134 193 639 938 1022 881 1193 1374 1167 1071 1278 1031 899 741 568 484 359 206 134 40 17
0 0 0 0 0 0 0 0 0 0 0 0 0 0 0 0 0 0 0 6 46 56 74 60 64 73 132 163 326 407 197 57 347 1039 1204 1027 811 871 1114 1008 844 774 650 565 400 289 91 11 7
0 0 0 0 0 0 0 0 0 0 0 0 0 0 0 0 0 0 76 193 216 39 4 0 35 115 192 198 94 23 33 480 614 561 849 765 571 831 845 808 874 941 761 525 414 330 174 36 1
0 0 0 0 0 0 0 0 0 0 0 0 0 0 0 0 0 14 168 155 2 0 3 2 10 82 219 227 182 74 10 55 465 581 615 610 542 687 707 706 634 775 637 504 399 315 180 45 6
0 0 0 0 0 1 0 0 0 0 0 0 0 0 0 0 0 48 136 6 6 4 12 22 2 0 9 29 40 66 28 5 42 134 308 470 266 221 405 585 567 546 510 411 290 263 163 34 2
0 0 0 0 0 0 0 0 0 0 0 0 0 0 0 0 0 26 22 17 6 13 14 22 0 0 0 0 0 0 0 0 15 39 80 147 354 242 253 222 345 488 391 288 220 161 66 48 26
0 0 0 13 0 0 4 0 0 0 0 1 0 0 0 9 3 0 0 1 1 3 11 7 0 0 0 0 0 0 0 0 0 24 53 54 316 424 320 279 256 314 319 206 131 126 62 37 30
0 17 17 3 3 0 0 13 1 0 0 1 0 0 0 0 0 0 0 3 2 0 0 0 0 0 0 0 0 0 0 0 0 0 17 57 77 368 296 288 226 233 217 157 138 86 52 31 14
0 1 26 7 0 0 0 0 0 0 0 0 2 6 0 2 0 0 2 3 0 0 0 0 0 0 0 0 0 0 0 0 0 0 0 23 39 51 253 136 169 81 36 55 59 40 15 7 1